Cloquet, MN

5:37 PM CDT on April 25, 2017 (GMT -0500)
Cloquet Carlton County

Weather History for KCOQ - December, 2012

Change the Weather History Date:

Thursday, December 6, 2012

  Actual Average Record
Temperature  
Mean Temperature 32 °F -  
Max Temperature 39 °F 28 °F 39 °F (2012)
Min Temperature 23 °F 15 °F -11 °F (2013)
Degree Days  
Heating Degree Days 34    
Moisture  
Dew Point 22 °F    
Average Humidity 63    
Maximum Humidity 75    
Minimum Humidity 44    
Precipitation  
Precipitation 0.00 in - - ()
Sea Level Pressure  
Sea Level Pressure 29.78 in    
Wind  
Wind Speed 11 mph (WSW)    
Max Wind Speed 18 mph    
Max Gust Speed 25 mph    
Visibility 10 miles    
Events      
Averages and records for this station are not official NWS values.
T = Trace of Precipitation, MM = Missing Value Source: NWS Daily Summary

Daily Weather History Graph

Daily Weather History Graph

Search for Another Location

Airport or City:

Trip Planner

Search our weather history database for the weather conditions in past years. The results will help you decide how hot, cold, wet, or windy it might be!

Date:

Astronomy

Dec. 06, 2012 Rise Set
Actual Time 7:40 AM CST 4:22 PM CST
Civil Twilight 7:05 AM CST 4:57 PM CST
Nautical Twilight 6:27 AM CST 5:35 PM CST
Astronomical Twilight 5:50 AM CST 6:12 PM CST
Moon No Moon Rise 12:11 PM CST (12/6)
Length of Visible Light 9h 51m
Length of Day
8h 42m
Waning Gibbous, 49% of the Moon is Illuminated
Dec 6
Waning Gibbous
Dec 13
New
Dec 19
First Quarter
Dec 28
Full
Jan 4
Last Quarter

Hourly Weather History & Observations

Time (CST) Temp. Windchill Dew Point Humidity Pressure Visibility Wind Dir Wind Speed Gust Speed Precip Events Conditions
12:16 AM 35.6 °F 28.6 °F 15.8 °F 44% 29.79 in 10.0 mi South 9.2 mph - N/A   Overcast
12:36 AM 35.6 °F 29.2 °F 15.8 °F 44% 29.78 in 10.0 mi South 8.1 mph - N/A   Mostly Cloudy
12:56 AM 35.6 °F 29.9 °F 17.6 °F 48% 29.78 in 10.0 mi South 6.9 mph 17.3 mph N/A   Mostly Cloudy
1:16 AM 35.6 °F 28.6 °F 17.6 °F 48% 29.78 in 10.0 mi South 9.2 mph 18.4 mph N/A   Scattered Clouds
1:36 AM 37.4 °F 30.3 °F 17.6 °F 45% 29.77 in 10.0 mi South 10.4 mph 17.3 mph N/A   Mostly Cloudy
1:56 AM 37.4 °F 29.3 °F 19.4 °F 48% 29.77 in 10.0 mi South 12.7 mph 21.9 mph N/A   Overcast
2:16 AM 37.4 °F 30.8 °F 19.4 °F 48% 29.78 in 10.0 mi South 9.2 mph 20.7 mph N/A   Overcast
2:36 AM 37.4 °F 30.3 °F 19.4 °F 48% 29.77 in 10.0 mi South 10.4 mph 19.6 mph N/A   Overcast
2:56 AM 37.4 °F 28.9 °F 19.4 °F 48% 29.77 in 10.0 mi South 13.8 mph 21.9 mph N/A   Overcast
3:16 AM 37.4 °F 30.3 °F 21.2 °F 52% 29.75 in 10.0 mi South 10.4 mph - N/A   Overcast
3:36 AM 37.4 °F 30.3 °F 21.2 °F 52% 29.75 in 10.0 mi SSW 10.4 mph - N/A   Overcast
3:56 AM 37.4 °F 30.3 °F 21.2 °F 52% 29.73 in 10.0 mi South 10.4 mph 17.3 mph N/A   Overcast
4:16 AM 37.4 °F 30.8 °F 21.2 °F 52% 29.69 in 10.0 mi SSE 9.2 mph 16.1 mph N/A   Unknown
4:36 AM 39.2 °F 32.0 °F 24.8 °F 56% 29.72 in 10.0 mi SSW 11.5 mph 18.4 mph N/A   Overcast
4:56 AM 39.2 °F 33.0 °F 24.8 °F 56% 29.71 in 10.0 mi SSW 9.2 mph 18.4 mph N/A   Mostly Cloudy
5:16 AM 39.2 °F 30.8 °F 24.8 °F 56% 29.69 in 10.0 mi South 15.0 mph 20.7 mph N/A   Scattered Clouds
5:36 AM 39.2 °F 30.5 °F 24.8 °F 56% 29.69 in 10.0 mi SSW 16.1 mph 20.7 mph N/A   Overcast
5:56 AM 39.2 °F 30.8 °F 24.8 °F 56% 29.68 in 10.0 mi SSW 15.0 mph 20.7 mph N/A   Mostly Cloudy
6:16 AM 39.2 °F 31.2 °F 26.6 °F 61% 29.68 in 10.0 mi SSW 13.8 mph - N/A   Scattered Clouds
6:36 AM 37.4 °F 29.8 °F 26.6 °F 65% 29.68 in 10.0 mi SSW 11.5 mph 18.4 mph N/A   Clear
6:56 AM 37.4 °F 28.5 °F 26.6 °F 65% 29.67 in 10.0 mi SSW 15.0 mph 21.9 mph N/A   Clear
7:16 AM 37.4 °F 29.8 °F 26.6 °F 65% 29.68 in 10.0 mi SW 11.5 mph 17.3 mph N/A   Clear
7:36 AM 37.4 °F 31.4 °F 26.6 °F 65% 29.68 in 10.0 mi SSW 8.1 mph - N/A   Clear
7:56 AM 37.4 °F 30.8 °F 28.4 °F 70% 29.68 in 10.0 mi SW 9.2 mph - N/A   Clear
8:16 AM 37.4 °F 30.3 °F 28.4 °F 70% 29.68 in 10.0 mi SSW 10.4 mph - N/A   Clear
8:36 AM 37.4 °F 30.8 °F 28.4 °F 70% 29.69 in 10.0 mi SW 9.2 mph - N/A   Clear
8:56 AM 35.6 °F 28.6 °F 28.4 °F 75% 29.69 in 10.0 mi SW 9.2 mph - N/A   Clear
9:16 AM 37.4 °F 31.4 °F 28.4 °F 70% 29.70 in 10.0 mi WSW 8.1 mph - N/A   Clear
9:36 AM 37.4 °F 29.3 °F 28.4 °F 70% 29.71 in 10.0 mi West 12.7 mph 19.6 mph N/A   Clear
9:56 AM 37.4 °F 27.5 °F 26.6 °F 65% 29.71 in 10.0 mi West 18.4 mph 23.0 mph N/A   Scattered Clouds
10:16 AM 37.4 °F 28.2 °F 26.6 °F 65% 29.72 in 10.0 mi West 16.1 mph 23.0 mph N/A   Overcast
10:36 AM 37.4 °F 28.2 °F 26.6 °F 65% 29.73 in 10.0 mi West 16.1 mph 25.3 mph N/A   Overcast
10:56 AM 37.4 °F 30.8 °F 26.6 °F 65% 29.72 in 10.0 mi West 9.2 mph 20.7 mph N/A   Overcast
11:16 AM 37.4 °F 30.3 °F 26.6 °F 65% 29.72 in 10.0 mi West 10.4 mph - N/A   Overcast
11:36 AM 37.4 °F 29.8 °F 26.6 °F 65% 29.72 in 10.0 mi WSW 11.5 mph 17.3 mph N/A   Overcast
11:56 AM 37.4 °F 29.8 °F 24.8 °F 60% 29.73 in 10.0 mi West 11.5 mph 17.3 mph N/A   Overcast
12:16 PM 37.4 °F 28.2 °F 24.8 °F 60% 29.72 in 10.0 mi West 16.1 mph 23.0 mph N/A   Overcast
12:36 PM 37.4 °F 30.3 °F 24.8 °F 60% 29.73 in 10.0 mi West 10.4 mph 21.9 mph N/A   Overcast
12:56 PM 35.6 °F 25.9 °F 24.8 °F 65% 29.73 in 10.0 mi West 16.1 mph 20.7 mph N/A   Overcast
1:16 PM 35.6 °F 27.1 °F 24.8 °F 65% 29.74 in 10.0 mi West 12.7 mph 21.9 mph N/A   Overcast
1:36 PM 35.6 °F 25.9 °F 24.8 °F 65% 29.75 in 10.0 mi West 16.1 mph 21.9 mph N/A   Overcast
1:56 PM 33.8 °F 23.9 °F 24.8 °F 70% 29.76 in 10.0 mi West 15.0 mph 23.0 mph N/A   Overcast
2:16 PM 33.8 °F 24.3 °F 24.8 °F 70% 29.77 in 10.0 mi West 13.8 mph 19.6 mph N/A   Overcast
2:36 PM 33.8 °F 25.8 °F 24.8 °F 70% 29.78 in 10.0 mi West 10.4 mph 17.3 mph N/A   Overcast
2:56 PM 32.0 °F 21.2 °F 23.0 °F 69% 29.79 in 10.0 mi West 16.1 mph 20.7 mph N/A   Overcast
3:15 PM 32.0 °F 23.0 °F 21.2 °F 64% 29.79 in 10.0 mi West 11.5 mph - N/A   Overcast
3:36 PM 30.2 °F 18.9 °F 21.2 °F 69% 29.81 in 10.0 mi WNW 16.1 mph 21.9 mph N/A   Overcast
3:56 PM 30.2 °F 20.8 °F 21.2 °F 69% 29.82 in 10.0 mi West 11.5 mph 17.3 mph N/A   Overcast
4:16 PM 30.2 °F 20.2 °F 21.2 °F 69% 29.82 in 10.0 mi West 12.7 mph - N/A   Overcast
4:36 PM 30.2 °F 20.8 °F 19.4 °F 64% 29.83 in 10.0 mi West 11.5 mph 19.6 mph N/A   Overcast
4:56 PM 30.2 °F 19.8 °F 19.4 °F 64% 29.84 in 10.0 mi West 13.8 mph 17.3 mph N/A   Overcast
5:16 PM 30.2 °F 19.8 °F 19.4 °F 64% 29.84 in 10.0 mi West 13.8 mph 18.4 mph N/A   Overcast
5:36 PM 28.4 °F 17.0 °F 19.4 °F 69% 29.85 in 10.0 mi WNW 15.0 mph 24.2 mph N/A   Overcast
5:56 PM 28.4 °F 17.0 °F 19.4 °F 69% 29.84 in 10.0 mi WNW 15.0 mph - N/A   Overcast
6:16 PM 28.4 °F 19.1 °F 19.4 °F 69% 29.85 in 10.0 mi WNW 10.4 mph - N/A   Mostly Cloudy
6:36 PM 28.4 °F 19.7 °F 17.6 °F 64% 29.86 in 10.0 mi West 9.2 mph 17.3 mph N/A   Mostly Cloudy
7:16 PM 26.6 °F 16.8 °F 17.6 °F 69% 29.87 in 10.0 mi WNW 10.4 mph - N/A   Clear
7:36 PM 26.6 °F 15.7 °F 17.6 °F 69% 29.87 in 10.0 mi WNW 12.7 mph 16.1 mph N/A   Clear
7:56 PM 26.6 °F 16.2 °F 17.6 °F 69% 29.88 in 10.0 mi WNW 11.5 mph - N/A   Clear
8:16 PM 26.6 °F 16.8 °F 17.6 °F 69% 29.90 in 10.0 mi West 10.4 mph - N/A   Scattered Clouds
8:36 PM 26.6 °F 17.5 °F 17.6 °F 69% 29.89 in 10.0 mi WNW 9.2 mph - N/A   Scattered Clouds
8:56 PM 26.6 °F 16.8 °F 17.6 °F 69% 29.88 in 10.0 mi WNW 10.4 mph - N/A   Scattered Clouds
9:13 PM 26.6 °F 19.1 °F 17.6 °F 69% 29.89 in 10.0 mi West 6.9 mph - N/A   Mostly Cloudy
9:36 PM 26.6 °F 21.2 °F 17.6 °F 69% 29.89 in 10.0 mi West 4.6 mph - N/A   Overcast
9:55 PM 26.6 °F 16.8 °F 17.6 °F 69% 29.90 in 10.0 mi WNW 10.4 mph 18.4 mph N/A   Overcast
10:16 PM 26.6 °F 17.5 °F 17.6 °F 69% 29.90 in 10.0 mi WNW 9.2 mph - N/A   Overcast
10:36 PM 24.8 °F 16.9 °F 17.6 °F 74% 29.90 in 10.0 mi West 6.9 mph 10.4 mph N/A   Mostly Cloudy
10:56 PM 24.8 °F 14.0 °F 15.8 °F 69% 29.91 in 10.0 mi West 11.5 mph 16.1 mph N/A   Scattered Clouds
11:16 PM 24.8 °F 14.6 °F 15.8 °F 69% 29.92 in 10.0 mi West 10.4 mph - N/A   Clear
11:36 PM 24.8 °F 14.6 °F 15.8 °F 69% 29.92 in 10.0 mi WNW 10.4 mph - N/A   Mostly Cloudy
11:56 PM 23.0 °F 11.1 °F 15.8 °F 74% 29.93 in 10.0 mi West 12.7 mph 23.0 mph N/A   Mostly Cloudy